Year,Month,Day,Hour,Minute,Value (Times are PST for temperature in C)
2014,01,11,00,00,6.60
2014,01,11,00,01,6.60
2014,01,11,00,02,6.60
2014,01,11,00,03,6.60
2014,01,11,00,04,6.60
2014,01,11,00,05,6.60
2014,01,11,00,06,6.60
2014,01,11,00,07,6.60
2014,01,11,00,08,6.60
2014,01,11,00,09,6.60
2014,01,11,00,10,6.60
2014,01,11,00,11,6.60
2014,01,11,00,12,6.60
2014,01,11,00,13,6.60
2014,01,11,00,14,6.60
2014,01,11,00,15,6.60
2014,01,11,00,16,6.60
2014,01,11,00,17,6.60
2014,01,11,00,18,6.60
2014,01,11,00,19,6.60
2014,01,11,00,20,6.60
2014,01,11,00,21,6.60
2014,01,11,00,22,6.60
2014,01,11,00,23,6.60
2014,01,11,00,24,6.70
2014,01,11,00,25,6.70
2014,01,11,00,26,6.70
2014,01,11,00,27,6.70
2014,01,11,00,28,6.70
2014,01,11,00,29,6.70
2014,01,11,00,30,6.70
2014,01,11,00,31,6.70
2014,01,11,00,32,6.70
2014,01,11,00,33,6.70
2014,01,11,00,34,6.70
2014,01,11,00,35,6.70
2014,01,11,00,36,6.70
2014,01,11,00,37,6.70
2014,01,11,00,38,6.70
2014,01,11,00,39,6.70
2014,01,11,00,40,6.70
2014,01,11,00,41,6.80
2014,01,11,00,42,6.80
2014,01,11,00,43,6.80
2014,01,11,00,44,6.80
2014,01,11,00,45,6.80
2014,01,11,00,46,6.80
2014,01,11,00,47,6.80
2014,01,11,00,48,6.80
2014,01,11,00,49,6.80
2014,01,11,00,50,6.80
2014,01,11,00,51,6.80
2014,01,11,00,52,6.80
2014,01,11,00,53,6.90
2014,01,11,00,54,6.90
2014,01,11,00,55,6.90
2014,01,11,00,56,6.90
2014,01,11,00,57,6.90
2014,01,11,00,58,6.90
2014,01,11,00,59,6.90
2014,01,11,01,00,7.00
2014,01,11,01,01,7.00
2014,01,11,01,02,7.00
2014,01,11,01,03,7.10
2014,01,11,01,04,7.10
2014,01,11,01,05,7.10
2014,01,11,01,06,7.10
2014,01,11,01,07,7.10
2014,01,11,01,08,7.10
2014,01,11,01,09,7.10
2014,01,11,01,10,7.10
2014,01,11,01,11,7.10
2014,01,11,01,12,7.10
2014,01,11,01,13,7.10
2014,01,11,01,14,7.10
2014,01,11,01,15,7.10
2014,01,11,01,16,7.10
2014,01,11,01,17,7.20
2014,01,11,01,18,7.20
2014,01,11,01,19,7.20
2014,01,11,01,20,7.20
2014,01,11,01,21,7.20
2014,01,11,01,22,7.20
2014,01,11,01,23,7.30
2014,01,11,01,24,7.30
2014,01,11,01,25,7.30
2014,01,11,01,26,7.30
2014,01,11,01,27,7.30
2014,01,11,01,28,7.30
2014,01,11,01,29,7.30
2014,01,11,01,30,7.40
2014,01,11,01,31,7.40
2014,01,11,01,32,7.40
2014,01,11,01,33,7.40
2014,01,11,01,34,7.40
2014,01,11,01,35,7.40
2014,01,11,01,36,7.40
2014,01,11,01,37,7.40
2014,01,11,01,38,7.50
2014,01,11,01,39,7.50
2014,01,11,01,40,7.50
2014,01,11,01,41,7.50
2014,01,11,01,42,7.50
2014,01,11,01,43,7.50
2014,01,11,01,44,7.60
2014,01,11,01,45,7.60
2014,01,11,01,46,7.60
2014,01,11,01,47,7.60
2014,01,11,01,48,7.60
2014,01,11,01,49,7.70
2014,01,11,01,50,7.70
2014,01,11,01,51,7.70
2014,01,11,01,52,7.70
2014,01,11,01,53,7.70
2014,01,11,01,54,7.70
2014,01,11,01,55,7.70
2014,01,11,01,56,7.70
2014,01,11,01,57,7.80
2014,01,11,01,58,7.80
2014,01,11,01,59,7.80
2014,01,11,02,00,7.80
2014,01,11,02,01,7.80
2014,01,11,02,02,7.80
2014,01,11,02,03,7.90
2014,01,11,02,04,7.90
2014,01,11,02,05,7.90
2014,01,11,02,06,8.00
2014,01,11,02,07,8.00
2014,01,11,02,08,8.00
2014,01,11,02,09,8.00
2014,01,11,02,10,8.00
2014,01,11,02,11,8.00
2014,01,11,02,12,8.00
2014,01,11,02,13,8.00
2014,01,11,02,14,8.00
2014,01,11,02,15,8.00
2014,01,11,02,16,8.00
2014,01,11,02,17,8.00
2014,01,11,02,18,8.00
2014,01,11,02,19,8.10
2014,01,11,02,20,8.10
2014,01,11,02,21,8.10
2014,01,11,02,22,8.10
2014,01,11,02,23,8.10
2014,01,11,02,24,8.10
2014,01,11,02,25,8.10
2014,01,11,02,26,8.10
2014,01,11,02,27,8.10
2014,01,11,02,28,8.10
2014,01,11,02,29,8.10
2014,01,11,02,30,8.10
2014,01,11,02,31,8.10
2014,01,11,02,32,8.10
2014,01,11,02,33,8.10
2014,01,11,02,34,8.10
2014,01,11,02,35,8.10
2014,01,11,02,36,8.10
2014,01,11,02,37,8.10
2014,01,11,02,38,8.10
2014,01,11,02,39,8.10
2014,01,11,02,40,8.10
2014,01,11,02,41,8.10
2014,01,11,02,42,8.10
2014,01,11,02,43,8.10
2014,01,11,02,44,8.10
2014,01,11,02,45,8.10
2014,01,11,02,46,8.10
2014,01,11,02,47,8.10
2014,01,11,02,48,8.10
2014,01,11,02,49,8.10
2014,01,11,02,50,8.10
2014,01,11,02,51,8.10
2014,01,11,02,52,8.10
2014,01,11,02,53,8.00
2014,01,11,02,54,8.00
2014,01,11,02,55,8.00
2014,01,11,02,56,8.00
2014,01,11,02,57,8.00
2014,01,11,02,58,7.90
2014,01,11,02,59,7.90
2014,01,11,03,00,7.90
2014,01,11,03,01,7.90
2014,01,11,03,02,7.90
2014,01,11,03,03,7.90
2014,01,11,03,04,7.90
2014,01,11,03,05,7.90
2014,01,11,03,06,7.80
2014,01,11,03,07,7.80
2014,01,11,03,08,7.80
2014,01,11,03,09,7.80
2014,01,11,03,10,7.70
2014,01,11,03,11,7.70
2014,01,11,03,12,7.70
2014,01,11,03,13,7.60
2014,01,11,03,14,7.60
2014,01,11,03,15,7.60
2014,01,11,03,16,7.60
2014,01,11,03,17,7.50
2014,01,11,03,18,7.50
2014,01,11,03,19,7.50
2014,01,11,03,20,7.50
2014,01,11,03,21,7.40
2014,01,11,03,22,7.40
2014,01,11,03,23,7.40
2014,01,11,03,24,7.40
2014,01,11,03,25,7.30
2014,01,11,03,26,7.30
2014,01,11,03,27,7.30
2014,01,11,03,28,7.30
2014,01,11,03,29,7.30
2014,01,11,03,30,7.30
2014,01,11,03,31,7.30
2014,01,11,03,32,7.30
2014,01,11,03,33,7.30
2014,01,11,03,34,7.30
2014,01,11,03,35,7.40
2014,01,11,03,36,7.40
2014,01,11,03,37,7.40
2014,01,11,03,38,7.40
2014,01,11,03,39,7.40
2014,01,11,03,40,7.30
2014,01,11,03,41,7.30
2014,01,11,03,42,7.30
2014,01,11,03,43,7.30
2014,01,11,03,44,7.30
2014,01,11,03,45,7.30
2014,01,11,03,46,7.30
2014,01,11,03,47,7.30
2014,01,11,03,48,7.30
2014,01,11,03,49,7.30
2014,01,11,03,50,7.30
2014,01,11,03,51,7.30
2014,01,11,03,52,7.30
2014,01,11,03,53,7.30
2014,01,11,03,54,7.30
2014,01,11,03,55,7.30
2014,01,11,03,56,7.30
2014,01,11,03,57,7.30
2014,01,11,03,58,7.30
2014,01,11,03,59,7.30
2014,01,11,04,00,7.30
2014,01,11,04,01,7.30
2014,01,11,04,02,7.20
2014,01,11,04,03,7.20
2014,01,11,04,04,7.20
2014,01,11,04,05,7.20
2014,01,11,04,06,7.20
2014,01,11,04,07,7.20
2014,01,11,04,08,7.20
2014,01,11,04,09,7.20
2014,01,11,04,10,7.20
2014,01,11,04,11,7.20
2014,01,11,04,12,7.20
2014,01,11,04,13,7.20
2014,01,11,04,14,7.10
2014,01,11,04,15,7.10
2014,01,11,04,16,7.10
2014,01,11,04,17,7.10
2014,01,11,04,18,7.10
2014,01,11,04,19,7.10
2014,01,11,04,20,7.10
2014,01,11,04,21,7.10
2014,01,11,04,22,7.00
2014,01,11,04,23,7.00
2014,01,11,04,24,7.00
2014,01,11,04,25,7.00
2014,01,11,04,26,6.90
2014,01,11,04,27,6.90
2014,01,11,04,28,6.90
2014,01,11,04,29,6.90
2014,01,11,04,30,6.90
2014,01,11,04,31,6.90
2014,01,11,04,32,6.90
2014,01,11,04,33,6.90
2014,01,11,04,34,6.80
2014,01,11,04,35,6.80
2014,01,11,04,36,6.80
2014,01,11,04,37,6.80
2014,01,11,04,38,6.80
2014,01,11,04,39,6.80
2014,01,11,04,40,6.80
2014,01,11,04,41,6.80
2014,01,11,04,42,6.80
2014,01,11,04,43,6.80
2014,01,11,04,44,6.80
2014,01,11,04,45,6.80
2014,01,11,04,46,6.80
2014,01,11,04,47,6.80
2014,01,11,04,48,6.80
2014,01,11,04,49,6.80
2014,01,11,04,50,6.80
2014,01,11,04,51,6.80
2014,01,11,04,52,6.80
2014,01,11,04,53,6.80
2014,01,11,04,54,6.80
2014,01,11,04,55,6.80
2014,01,11,04,56,6.80
2014,01,11,04,57,6.80
2014,01,11,04,58,6.80
2014,01,11,04,59,6.80
2014,01,11,05,00,6.70
2014,01,11,05,01,6.70
2014,01,11,05,02,6.70
2014,01,11,05,03,6.70
2014,01,11,05,04,6.70
2014,01,11,05,05,6.60
2014,01,11,05,06,6.60
2014,01,11,05,07,6.60
2014,01,11,05,08,6.60
2014,01,11,05,09,6.60
2014,01,11,05,10,6.60
2014,01,11,05,11,6.60
2014,01,11,05,12,6.60
2014,01,11,05,13,6.60
2014,01,11,05,14,6.60
2014,01,11,05,15,6.60
2014,01,11,05,16,6.60
2014,01,11,05,17,6.70
2014,01,11,05,18,6.70
2014,01,11,05,19,6.70
2014,01,11,05,20,6.60
2014,01,11,05,21,6.60
2014,01,11,05,22,6.60
2014,01,11,05,23,6.60
2014,01,11,05,24,6.60
2014,01,11,05,25,6.60
2014,01,11,05,26,6.60
2014,01,11,05,27,6.60
2014,01,11,05,28,6.60
2014,01,11,05,29,6.60
2014,01,11,05,30,6.60
2014,01,11,05,31,6.60
2014,01,11,05,32,6.70
2014,01,11,05,33,6.70
2014,01,11,05,34,6.70
2014,01,11,05,35,6.60
2014,01,11,05,36,6.60
2014,01,11,05,37,6.60
2014,01,11,05,38,6.60
2014,01,11,05,39,6.60
2014,01,11,05,40,6.60
2014,01,11,05,41,6.50
2014,01,11,05,42,6.50
2014,01,11,05,43,6.50
2014,01,11,05,44,6.50
2014,01,11,05,45,6.40
2014,01,11,05,46,6.40
2014,01,11,05,47,6.40
2014,01,11,05,48,6.40
2014,01,11,05,49,6.40
2014,01,11,05,50,6.40
2014,01,11,05,51,6.40
2014,01,11,05,52,6.30
2014,01,11,05,53,6.30
2014,01,11,05,54,6.30
2014,01,11,05,55,6.30
2014,01,11,05,56,6.20
2014,01,11,05,57,6.20
2014,01,11,05,58,6.20
2014,01,11,05,59,6.10
2014,01,11,06,00,6.10
2014,01,11,06,01,6.10
2014,01,11,06,02,6.00
2014,01,11,06,03,6.00
2014,01,11,06,04,6.00
2014,01,11,06,05,5.90
2014,01,11,06,06,5.90
2014,01,11,06,07,5.90
2014,01,11,06,08,5.90
2014,01,11,06,09,5.90
2014,01,11,06,10,5.80
2014,01,11,06,11,5.80
2014,01,11,06,12,5.80
2014,01,11,06,13,5.70
2014,01,11,06,14,5.70
2014,01,11,06,15,5.70
2014,01,11,06,16,5.70
2014,01,11,06,17,5.70
2014,01,11,06,18,5.70
2014,01,11,06,19,5.70
2014,01,11,06,20,5.70
2014,01,11,06,21,5.70
2014,01,11,06,22,5.60
2014,01,11,06,23,5.60
2014,01,11,06,24,5.60
2014,01,11,06,25,5.60
2014,01,11,06,26,5.60
2014,01,11,06,27,5.50
2014,01,11,06,28,5.50
2014,01,11,06,29,5.50
2014,01,11,06,30,5.50
2014,01,11,06,31,5.40
2014,01,11,06,32,5.40
2014,01,11,06,33,5.40
2014,01,11,06,34,5.40
2014,01,11,06,35,5.30
2014,01,11,06,36,5.30
2014,01,11,06,37,5.30
2014,01,11,06,38,5.30
2014,01,11,06,39,5.30
2014,01,11,06,40,5.30
2014,01,11,06,41,5.40
2014,01,11,06,42,5.40
2014,01,11,06,43,5.40
2014,01,11,06,44,5.40
2014,01,11,06,45,5.40
2014,01,11,06,46,5.40
2014,01,11,06,47,5.30
2014,01,11,06,48,5.30
2014,01,11,06,49,5.30
2014,01,11,06,50,5.30
2014,01,11,06,51,5.30
2014,01,11,06,52,5.30
2014,01,11,06,53,5.30
2014,01,11,06,54,5.30
2014,01,11,06,55,5.40
2014,01,11,06,56,5.40
2014,01,11,06,57,5.50
2014,01,11,06,58,5.60
2014,01,11,06,59,5.60
2014,01,11,07,00,5.70
2014,01,11,07,01,5.70
2014,01,11,07,02,5.60
2014,01,11,07,03,5.60
2014,01,11,07,04,5.60
2014,01,11,07,05,5.60
2014,01,11,07,06,5.60
2014,01,11,07,07,5.70
2014,01,11,07,08,5.60
2014,01,11,07,09,5.60
2014,01,11,07,10,5.50
2014,01,11,07,11,5.50
2014,01,11,07,12,5.40
2014,01,11,07,13,5.30
2014,01,11,07,14,5.30
2014,01,11,07,15,5.30
2014,01,11,07,16,5.40
2014,01,11,07,17,5.40
2014,01,11,08,06,6.70
2014,01,11,08,07,6.70
2014,01,11,08,08,6.70
2014,01,11,08,09,6.70
2014,01,11,08,10,6.70
2014,01,11,08,11,6.70
2014,01,11,08,12,6.80
2014,01,11,08,13,6.80
2014,01,11,08,14,6.80
2014,01,11,08,15,6.80
2014,01,11,08,16,6.80
2014,01,11,08,17,6.80
2014,01,11,08,18,6.80
2014,01,11,08,19,6.80
2014,01,11,08,20,6.80
2014,01,11,08,21,6.80
2014,01,11,08,22,6.80
2014,01,11,08,23,6.80
2014,01,11,08,24,6.80
2014,01,11,08,25,6.70
2014,01,11,08,26,6.70
2014,01,11,08,27,6.70
2014,01,11,08,28,6.70
2014,01,11,08,29,6.60
2014,01,11,08,30,6.60
2014,01,11,08,31,6.50
2014,01,11,08,32,6.50
2014,01,11,08,33,6.50
2014,01,11,08,34,6.40
2014,01,11,08,35,6.50
2014,01,11,08,36,6.50
2014,01,11,08,37,6.50
2014,01,11,08,38,6.50
2014,01,11,08,39,6.50
2014,01,11,08,40,6.50
2014,01,11,08,41,6.50
2014,01,11,08,42,6.40
2014,01,11,08,43,6.40
2014,01,11,08,44,6.40
2014,01,11,08,45,6.40
2014,01,11,08,46,6.40
2014,01,11,08,47,6.30
2014,01,11,08,48,6.30
2014,01,11,08,49,6.30
2014,01,11,08,50,6.30
2014,01,11,08,51,6.30
2014,01,11,08,52,6.30
2014,01,11,08,53,6.30
2014,01,11,08,54,6.30
2014,01,11,08,55,6.30
2014,01,11,08,56,6.30
2014,01,11,08,57,6.30
2014,01,11,08,58,6.30
2014,01,11,08,59,6.30
2014,01,11,09,00,6.30
2014,01,11,09,01,6.30
2014,01,11,09,02,6.30
2014,01,11,09,03,6.30
2014,01,11,09,04,6.30
2014,01,11,09,05,6.30
2014,01,11,09,06,6.30
2014,01,11,09,07,6.30
2014,01,11,09,08,6.30
2014,01,11,09,09,6.30
2014,01,11,09,10,6.30
2014,01,11,09,11,6.30
2014,01,11,09,12,6.30
2014,01,11,09,13,6.30
2014,01,11,09,14,6.30
2014,01,11,09,15,6.30
2014,01,11,09,16,6.30
2014,01,11,09,17,6.30
2014,01,11,09,18,6.30
2014,01,11,09,19,6.30
2014,01,11,09,20,6.30
2014,01,11,09,21,6.30
2014,01,11,09,22,6.30
2014,01,11,09,23,6.30
2014,01,11,09,24,6.30
2014,01,11,09,25,6.30
2014,01,11,09,26,6.40
2014,01,11,09,27,6.40
2014,01,11,09,28,6.40
2014,01,11,09,29,6.40
2014,01,11,09,30,6.40
2014,01,11,09,31,6.40
2014,01,11,09,32,6.50
2014,01,11,09,33,6.50
2014,01,11,09,34,6.40
2014,01,11,09,35,6.40
2014,01,11,09,36,6.40
2014,01,11,09,37,6.40
2014,01,11,09,38,6.40
2014,01,11,09,39,6.40
2014,01,11,09,40,6.40
2014,01,11,09,41,6.40
2014,01,11,09,42,6.40
2014,01,11,09,43,6.30
2014,01,11,09,44,6.30
2014,01,11,09,45,6.40
2014,01,11,09,46,6.40
2014,01,11,09,47,6.30
2014,01,11,09,48,6.30
2014,01,11,09,49,6.30
2014,01,11,09,50,6.30
2014,01,11,09,51,6.30
2014,01,11,09,52,6.20
2014,01,11,09,53,6.20
2014,01,11,09,54,6.20
2014,01,11,09,55,6.20
2014,01,11,09,56,6.20
2014,01,11,09,57,6.20
2014,01,11,09,58,6.10
2014,01,11,09,59,6.10
2014,01,11,10,00,6.10
2014,01,11,10,01,6.00
2014,01,11,10,02,6.00
2014,01,11,10,03,6.00
2014,01,11,10,04,5.90
2014,01,11,10,05,5.90
2014,01,11,10,06,5.90
2014,01,11,10,07,5.90
2014,01,11,10,08,5.80
2014,01,11,10,09,5.80
2014,01,11,10,10,5.70
2014,01,11,10,11,5.70
2014,01,11,10,12,5.70
2014,01,11,10,13,5.70
2014,01,11,10,14,5.60
2014,01,11,10,15,5.60
2014,01,11,10,16,5.60
2014,01,11,10,17,5.60
2014,01,11,10,18,5.50
2014,01,11,10,19,5.50
2014,01,11,10,20,5.40
2014,01,11,10,21,5.40
2014,01,11,10,22,5.40
2014,01,11,10,23,5.40
2014,01,11,10,24,5.30
2014,01,11,10,25,5.30
2014,01,11,10,26,5.20
2014,01,11,10,27,5.20
2014,01,11,10,28,5.20
2014,01,11,10,29,5.10
2014,01,11,10,30,5.10
2014,01,11,10,31,5.20
2014,01,11,10,32,5.20
2014,01,11,10,33,5.20
2014,01,11,10,34,5.20
2014,01,11,10,35,5.30
2014,01,11,10,36,5.30
2014,01,11,10,37,5.40
2014,01,11,10,38,5.40
2014,01,11,10,39,5.40
2014,01,11,10,40,5.40
2014,01,11,10,41,5.40
2014,01,11,10,42,5.50
2014,01,11,10,43,5.50
2014,01,11,10,44,5.60
2014,01,11,10,45,5.60
2014,01,11,10,46,5.60
2014,01,11,10,47,5.60
2014,01,11,10,48,5.70
2014,01,11,10,49,5.70
2014,01,11,10,50,5.70
2014,01,11,10,51,5.70
2014,01,11,10,52,5.70
2014,01,11,10,53,5.70
2014,01,11,10,54,5.70
2014,01,11,10,55,5.70
2014,01,11,10,56,5.70
2014,01,11,10,57,5.70
2014,01,11,10,58,5.70
2014,01,11,10,59,5.70
2014,01,11,11,00,5.70
2014,01,11,11,01,5.70
2014,01,11,11,02,5.70
2014,01,11,11,03,5.70
2014,01,11,11,04,5.70
2014,01,11,11,05,5.70
2014,01,11,11,06,5.70
2014,01,11,11,07,5.70
2014,01,11,11,08,5.60
2014,01,11,11,09,5.60
2014,01,11,11,10,5.60
2014,01,11,11,11,5.60
2014,01,11,11,12,5.60
2014,01,11,11,13,5.60
2014,01,11,11,14,5.50
2014,01,11,11,15,5.50
2014,01,11,11,16,5.50
2014,01,11,11,17,5.40
2014,01,11,11,18,5.40
2014,01,11,11,19,5.40
2014,01,11,11,20,5.40
2014,01,11,11,21,5.40
2014,01,11,11,22,5.40
2014,01,11,11,23,5.40
2014,01,11,11,24,5.30
2014,01,11,11,25,5.30
2014,01,11,11,26,5.30
2014,01,11,11,27,5.30
2014,01,11,11,28,5.30
2014,01,11,11,29,5.30
2014,01,11,11,30,5.20
2014,01,11,11,31,5.20
2014,01,11,11,32,5.20
2014,01,11,11,33,5.20
2014,01,11,11,34,5.20
2014,01,11,11,35,5.10
2014,01,11,11,36,5.10
2014,01,11,11,37,5.10
2014,01,11,11,38,5.10
2014,01,11,11,39,5.10
2014,01,11,11,40,5.00
2014,01,11,11,41,5.00
2014,01,11,11,42,5.00
2014,01,11,11,43,4.90
2014,01,11,11,44,4.90
2014,01,11,11,45,4.90
2014,01,11,11,46,4.80
2014,01,11,11,47,4.80
2014,01,11,11,48,4.80
2014,01,11,11,49,4.70
2014,01,11,11,50,4.70
2014,01,11,11,51,4.60
2014,01,11,11,52,4.60
2014,01,11,11,53,4.60
2014,01,11,11,54,4.50
2014,01,11,11,55,4.50
2014,01,11,11,56,4.40
2014,01,11,11,57,4.30
2014,01,11,11,58,4.30
2014,01,11,11,59,4.30
2014,01,11,12,00,4.20
2014,01,11,12,01,4.20
2014,01,11,12,02,4.20
2014,01,11,12,03,4.10
2014,01,11,12,04,4.00
2014,01,11,12,05,4.00
2014,01,11,12,06,3.90
2014,01,11,12,07,3.80
2014,01,11,12,08,3.80
2014,01,11,12,09,3.70
2014,01,11,12,10,3.70
2014,01,11,12,11,3.70
2014,01,11,12,12,3.60
2014,01,11,12,13,3.60
2014,01,11,12,14,3.50
2014,01,11,12,15,3.50
2014,01,11,12,16,3.50
2014,01,11,12,17,3.50
2014,01,11,12,18,3.40
2014,01,11,12,19,3.40
2014,01,11,12,20,3.40
2014,01,11,12,21,3.40
2014,01,11,12,22,3.30
2014,01,11,12,23,3.30
2014,01,11,12,24,3.30
2014,01,11,12,25,3.30
2014,01,11,12,26,3.30
2014,01,11,12,27,3.30
2014,01,11,12,28,3.30
2014,01,11,12,29,3.30
2014,01,11,12,30,3.20
2014,01,11,12,31,3.20
2014,01,11,12,32,3.20
2014,01,11,12,33,3.20
2014,01,11,12,34,3.20
2014,01,11,12,35,3.10
2014,01,11,12,36,3.10
2014,01,11,12,37,3.10
2014,01,11,12,38,3.10
2014,01,11,12,39,3.00
2014,01,11,12,40,3.00
2014,01,11,12,41,2.90
2014,01,11,12,42,2.90
2014,01,11,12,43,2.90
2014,01,11,12,44,2.90
2014,01,11,12,45,2.90
2014,01,11,12,46,2.80
2014,01,11,12,47,2.80
2014,01,11,12,48,2.80
2014,01,11,12,49,2.80
2014,01,11,12,50,2.80
2014,01,11,12,51,2.80
2014,01,11,12,52,2.80
2014,01,11,12,53,2.80
2014,01,11,12,54,2.90
2014,01,11,12,55,2.90
2014,01,11,12,56,2.90
2014,01,11,12,57,2.80
2014,01,11,12,58,2.80
2014,01,11,12,59,2.80
2014,01,11,13,00,2.80
2014,01,11,13,01,2.80
2014,01,11,13,02,2.80
2014,01,11,13,03,2.80
2014,01,11,13,04,2.80
2014,01,11,13,05,2.80
2014,01,11,13,06,2.80
2014,01,11,13,07,2.80
2014,01,11,13,08,2.70
2014,01,11,13,09,2.70
2014,01,11,13,10,2.70
2014,01,11,13,11,2.80
2014,01,11,13,12,2.80
2014,01,11,13,13,2.80
2014,01,11,13,14,2.80
2014,01,11,13,15,2.80
2014,01,11,13,16,2.80
2014,01,11,13,17,2.80
2014,01,11,13,18,2.80
2014,01,11,13,19,2.80
2014,01,11,13,20,2.80
2014,01,11,13,21,2.80
2014,01,11,13,22,2.70
2014,01,11,13,23,2.70
2014,01,11,13,24,2.70
2014,01,11,13,25,2.70
2014,01,11,13,26,2.70
2014,01,11,13,27,2.70
2014,01,11,13,28,2.70
2014,01,11,13,29,2.70
2014,01,11,13,30,2.70
2014,01,11,13,31,2.80
2014,01,11,13,32,2.80
2014,01,11,13,33,2.90
2014,01,11,13,34,2.90
2014,01,11,13,35,2.90
2014,01,11,13,36,2.90
2014,01,11,13,37,3.00
2014,01,11,13,38,3.00
2014,01,11,13,39,2.90
2014,01,11,13,40,2.80
2014,01,11,13,41,2.80
2014,01,11,13,42,2.80
2014,01,11,13,43,2.80
2014,01,11,13,44,2.80
2014,01,11,13,45,2.70
2014,01,11,13,46,2.70
2014,01,11,13,47,2.70
2014,01,11,13,48,2.60
2014,01,11,13,49,2.60
2014,01,11,13,50,2.60
2014,01,11,13,51,2.50
2014,01,11,13,52,2.50
2014,01,11,13,53,2.40
2014,01,11,13,54,2.40
2014,01,11,13,55,2.40
2014,01,11,13,56,2.40
2014,01,11,13,57,2.40
2014,01,11,13,58,2.40
2014,01,11,13,59,2.30
2014,01,11,14,00,2.30
2014,01,11,14,01,2.30
2014,01,11,14,02,2.30
2014,01,11,14,03,2.30
2014,01,11,14,04,2.30
2014,01,11,14,05,2.30
2014,01,11,14,06,2.30
2014,01,11,14,07,2.30
2014,01,11,14,08,2.30
2014,01,11,14,09,2.30
2014,01,11,14,10,2.30
2014,01,11,14,11,2.30
2014,01,11,14,12,2.30
2014,01,11,14,13,2.30
2014,01,11,14,14,2.20
2014,01,11,14,15,2.20
2014,01,11,14,16,2.20
2014,01,11,14,17,2.20
2014,01,11,14,18,2.20
2014,01,11,14,19,2.20
2014,01,11,14,20,2.20
2014,01,11,14,21,2.20
2014,01,11,14,22,2.10
2014,01,11,14,23,2.10
2014,01,11,14,24,2.10
2014,01,11,14,25,2.00
2014,01,11,14,26,2.00
2014,01,11,14,27,2.00
2014,01,11,14,28,2.00
2014,01,11,14,29,2.00
2014,01,11,14,30,2.00
2014,01,11,14,31,1.90
2014,01,11,14,32,1.90
2014,01,11,14,33,1.90
2014,01,11,14,34,1.80
2014,01,11,14,35,1.80
2014,01,11,14,36,1.80
2014,01,11,14,37,1.80
2014,01,11,14,38,1.80
2014,01,11,14,39,1.80
2014,01,11,14,40,1.80
2014,01,11,14,41,1.80
2014,01,11,14,42,1.90
2014,01,11,14,43,1.90
2014,01,11,14,44,1.90
2014,01,11,14,45,1.90
2014,01,11,14,46,1.90
2014,01,11,14,47,1.90
2014,01,11,14,48,1.90
2014,01,11,14,49,1.90
2014,01,11,14,50,1.90
2014,01,11,14,51,1.90
2014,01,11,14,52,1.90
2014,01,11,14,53,1.90
2014,01,11,14,54,1.90
2014,01,11,14,55,1.90
2014,01,11,14,56,1.90
2014,01,11,14,57,1.90
2014,01,11,14,58,1.90
2014,01,11,14,59,1.90
2014,01,11,15,00,1.80
2014,01,11,15,01,1.80
2014,01,11,15,02,1.80
2014,01,11,15,03,1.80
2014,01,11,15,04,1.70
2014,01,11,15,05,1.70
2014,01,11,15,06,1.70
2014,01,11,15,07,1.70
2014,01,11,15,08,1.70
2014,01,11,15,09,1.70
2014,01,11,15,10,1.70
2014,01,11,15,11,1.70
2014,01,11,15,12,1.70
2014,01,11,15,13,1.70
2014,01,11,15,14,1.70
2014,01,11,15,15,1.80
2014,01,11,15,16,1.80
2014,01,11,15,17,1.90
2014,01,11,15,18,1.90
2014,01,11,15,19,1.90
2014,01,11,15,20,1.90
2014,01,11,15,21,1.90
2014,01,11,15,22,1.90
2014,01,11,15,23,1.90
2014,01,11,15,24,1.80
2014,01,11,15,25,1.80
2014,01,11,15,26,1.80
2014,01,11,15,27,1.70
2014,01,11,15,28,1.70
2014,01,11,15,29,1.80
2014,01,11,15,30,1.80
2014,01,11,15,31,1.80
2014,01,11,15,32,1.80
2014,01,11,15,33,1.80
2014,01,11,15,34,1.80
2014,01,11,15,35,1.80
2014,01,11,15,36,1.80
2014,01,11,15,37,1.80
2014,01,11,15,38,1.70
2014,01,11,15,39,1.70
2014,01,11,15,40,1.70
2014,01,11,15,41,1.70
2014,01,11,15,42,1.70
2014,01,11,15,43,1.70
2014,01,11,15,44,1.70
2014,01,11,15,45,1.80
2014,01,11,15,46,1.80
2014,01,11,15,47,1.80
2014,01,11,15,48,1.80
2014,01,11,15,49,1.80
2014,01,11,15,50,1.80
2014,01,11,15,51,1.80
2014,01,11,15,52,1.80
2014,01,11,15,53,1.80
2014,01,11,15,54,1.80
2014,01,11,15,55,1.80
2014,01,11,15,56,1.80
2014,01,11,15,57,1.80
2014,01,11,15,58,1.80
2014,01,11,15,59,1.80
2014,01,11,16,00,1.80
2014,01,11,16,01,1.80
2014,01,11,16,02,1.80
2014,01,11,16,03,1.80
2014,01,11,16,04,1.70
2014,01,11,16,05,1.70
2014,01,11,16,06,1.70
2014,01,11,16,07,1.60
2014,01,11,16,08,1.60
2014,01,11,16,09,1.60
2014,01,11,16,10,1.60
2014,01,11,16,11,1.60
2014,01,11,16,12,1.50
2014,01,11,16,13,1.50
2014,01,11,16,14,1.50
2014,01,11,16,15,1.50
2014,01,11,16,16,1.50
2014,01,11,16,17,1.50
2014,01,11,16,18,1.40
2014,01,11,16,19,1.40
2014,01,11,16,20,1.40
2014,01,11,16,21,1.40
2014,01,11,16,22,1.40
2014,01,11,16,23,1.40
2014,01,11,16,24,1.40
2014,01,11,16,25,1.40
2014,01,11,16,26,1.40
2014,01,11,16,27,1.40
2014,01,11,16,28,1.30
2014,01,11,16,29,1.30
2014,01,11,16,30,1.30
2014,01,11,16,31,1.30
2014,01,11,16,32,1.40
2014,01,11,16,33,1.30
2014,01,11,16,34,1.30
2014,01,11,16,35,1.30
2014,01,11,16,36,1.30
2014,01,11,16,37,1.40
2014,01,11,16,38,1.40
2014,01,11,16,39,1.40
2014,01,11,16,40,1.50
2014,01,11,16,41,1.50
2014,01,11,16,42,1.50
2014,01,11,16,43,1.50
2014,01,11,16,44,1.60
2014,01,11,16,45,1.60
2014,01,11,16,46,1.60
2014,01,11,16,47,1.60
2014,01,11,16,48,1.60
2014,01,11,16,49,1.60
2014,01,11,16,50,1.60
2014,01,11,16,51,1.50
2014,01,11,16,52,1.50
2014,01,11,16,53,1.50
2014,01,11,16,54,1.50
2014,01,11,16,55,1.50
2014,01,11,16,56,1.50
2014,01,11,16,57,1.50
2014,01,11,16,58,1.50
2014,01,11,16,59,1.50
2014,01,11,17,00,1.40
2014,01,11,17,01,1.40
2014,01,11,17,02,1.40
2014,01,11,17,03,1.40
2014,01,11,17,04,1.40
2014,01,11,17,05,1.40
2014,01,11,17,06,1.40
2014,01,11,17,07,1.40
2014,01,11,17,08,1.40
2014,01,11,17,09,1.40
2014,01,11,17,10,1.40
2014,01,11,17,11,1.30
2014,01,11,17,12,1.30
2014,01,11,17,13,1.30
2014,01,11,17,14,1.30
2014,01,11,17,15,1.30
2014,01,11,17,16,1.20
2014,01,11,17,17,1.20
2014,01,11,17,18,1.20
2014,01,11,17,19,1.20
2014,01,11,17,20,1.10
2014,01,11,17,21,1.10
2014,01,11,17,22,1.10
2014,01,11,17,23,1.00
2014,01,11,17,24,1.10
2014,01,11,17,25,1.10
2014,01,11,17,26,1.20
2014,01,11,17,27,1.20
2014,01,11,17,28,1.20
2014,01,11,17,29,1.20
2014,01,11,17,30,1.20
2014,01,11,17,31,1.20
2014,01,11,17,32,1.20
2014,01,11,17,33,1.30
2014,01,11,17,34,1.20
2014,01,11,17,35,1.20
2014,01,11,17,36,1.20
2014,01,11,17,37,1.20
2014,01,11,17,38,1.20
2014,01,11,17,39,1.20
2014,01,11,17,40,1.20
2014,01,11,17,41,1.20
2014,01,11,17,42,1.30
2014,01,11,17,43,1.30
2014,01,11,17,44,1.30
2014,01,11,17,45,1.30
2014,01,11,17,46,1.20
2014,01,11,17,47,1.20
2014,01,11,17,48,1.20
2014,01,11,17,49,1.20
2014,01,11,17,50,1.20
2014,01,11,17,51,1.20
2014,01,11,17,52,1.20
2014,01,11,17,53,1.20
2014,01,11,17,54,1.20
2014,01,11,17,55,1.20
2014,01,11,17,56,1.20
2014,01,11,17,57,1.20
2014,01,11,17,58,1.20
2014,01,11,17,59,1.20
2014,01,11,18,00,1.20
2014,01,11,18,01,1.20
2014,01,11,18,02,1.20
2014,01,11,18,03,1.20
2014,01,11,18,04,1.20
2014,01,11,18,05,1.20
2014,01,11,18,06,1.20
2014,01,11,18,07,1.20
2014,01,11,18,08,1.20
2014,01,11,18,09,1.20
2014,01,11,18,10,1.10
2014,01,11,18,11,1.10
2014,01,11,18,12,1.20
2014,01,11,18,13,1.20
2014,01,11,18,14,1.20
2014,01,11,18,15,1.20
2014,01,11,18,16,1.20
2014,01,11,18,17,1.20
2014,01,11,18,18,1.20
2014,01,11,18,19,1.20
2014,01,11,18,20,1.20
2014,01,11,18,21,1.10
2014,01,11,18,22,1.10
2014,01,11,18,23,1.10
2014,01,11,18,24,1.10
2014,01,11,18,25,1.00
2014,01,11,18,26,1.00
2014,01,11,18,27,1.00
2014,01,11,18,28,1.00
2014,01,11,18,29,1.00
2014,01,11,18,30,1.10
2014,01,11,18,31,1.10
2014,01,11,18,32,1.10
2014,01,11,18,33,1.10
2014,01,11,18,34,1.10
2014,01,11,18,35,1.10
2014,01,11,18,36,1.10
2014,01,11,18,37,1.10
2014,01,11,18,38,1.10
2014,01,11,18,39,1.10
2014,01,11,18,40,1.10
2014,01,11,18,41,1.10
2014,01,11,18,42,1.10
2014,01,11,18,43,1.10
2014,01,11,18,44,1.00
2014,01,11,18,45,1.00
2014,01,11,18,46,1.00
2014,01,11,18,47,1.00
2014,01,11,18,48,1.00
2014,01,11,18,49,1.00
2014,01,11,18,50,1.10
2014,01,11,18,51,1.10
2014,01,11,18,52,1.10
2014,01,11,18,53,1.10
2014,01,11,18,54,1.20